EHI
0 0 0 0 0 0 0 0 0 0 0 0 0 0 0 0 0 0 0 0 0 0 0 0 0 0 0 0 0 1 2 1 0 0 0 0 0 0 0 0 0 0 0 0
0 0 0 0 0 0 0 0 0 0 0 0 0 0 0 0 0 0 0 0 0 0 0 0 0 0 0 0 1 2 3 2 1 1 1 0 0 0 0 0 0 0 0 0
0 0 0 0 0 0 0 0 0 0 0 0 0 0 0 0 0 0 0 0 0 0 0 0 0 0 0 0 1 3 3 3 2 2 2 1 1 1 1 0 0 0 0 0
0 0 0 0 0 0 0 0 0 0 0 0 0 0 0 0 0 0 0 0 0 0 0 0 0 0 0 0 1 2 2 2 2 3 3 3 2 2 2 1 0 0 0 0
0 0 0 0 0 0 0 0 0 0 0 0 0 0 0 0 0 0 0 0 0 0 0 0 0 0 0 0 1 1 1 0 1 3 3 3 3 3 2 1 0 0 0 0
0 0 0 0 0 0 0 0 0 0 0 0 0 0 0 0 0 0 0 0 0 0 0 0 0 0 0 0 0 0 0 0 0 1 2 2 2 2 2 1 0 0 0 0
0 0 0 0 0 0 0 0 0 0 0 0 0 0 0 0 0 0 0 0 0 0 0 0 0 0 0 0 0 0 0 0 0 0 1 1 1 1 1 0 0 0 0 0
0 0 0 0 0 0 0 0 0 0 0 0 0 0 0 0 0 0 0 0 0 0 0 0 0 0 0 0 0 0 0 0 0 0 0 0 0 0 0 0 0 0 0 0
0 0 0 0 0 0 0 0 0 0 0 0 0 0 0 0 0 0 0 0 0 0 0 0 0 0 0 0 0 0 0 0 0 0 0 0 0 0 0 0 0 0 0 0
0 0 0 0 0 0 0 0 0 0 0 0 0 0 0 0 0 0 0 0 0 0 0 0 0 0 0 0 0 0 0 0 0 0 0 0 0 0 0 0 0 0 0 0
0 0 0 0 0 0 0 0 0 0 0 0 0 0 0 0 0 0 0 0 0 0 0 0 0 0 0 0 0 0 0 0 0 0 0 0 0 0 0 0 0 0 0 0
0 0 0 0 0 0 0 0 0 0 0 0 0 0 0 0 0 0 0 0 0 0 0 0 0 0 0 0 0 0 0 0 0 0 0 0 0 0 0 0 0 0 0 0
0 0 0 0 0 0 0 0 0 0 0 0 0 0 0 0 0 0 0 0 0 0 0 0 0 0 0 0 0 0 0 0 0 0 0 0 0 0 0 0 0 0 0 0
0 0 0 0 0 0 0 0 0 0 0 0 0 0 0 0 0 0 0 0 0 0 0 0 0 0 0 0 0 0 0 0 0 0 0 0 0 0 0 0 0 0 0 0
0 0 0 0 0 0 0 0 0 0 0 0 0 0 0 0 0 0 0 0 0 0 0 0 0 0 0 0 0 0 0 0 0 0 0 0 0 0 0 0 0 0 0 0
0 0 0 0 0 0 0 0 0 0 0 0 0 0 0 0 0 0 0 0 0 0 0 0 0 0 0 0 0 0 0 0 0 0 0 0 0 0 0 0 0 0 0 0
0 0 0 0 0 0 0 0 0 0 0 0 0 0 0 0 0 0 0 0 0 0 0 0 0 0 0 0 0 0 0 0 0 0 0 0 0 0 0 0 0 0 0 0
0 0 0 0 0 0 0 0 0 0 0 0 0 0 0 0 0 0 0 0 0 0 0 0 0 0 0 0 0 0 0 0 0 0 0 0 0 0 0 0 0 0 0 0
0 0 0 0 0 0 0 0 0 0 0 0 0 0 0 0 0 0 0 0 0 0 0 0 0 0 0 0 0 0 0 0 0 0 0 0 0 0 0 0 0 0 0 0
0 0 0 0 0 0 0 0 0 0 0 0 0 0 0 0 0 0 0 0 0 0 0 0 0 0 0 0 0 0 0 0 0 0 0 0 0 0 0 0 0 0 0 0
0 0 0 0 0 0 0 0 0 0 0 0 0 0 0 0 0 0 0 0 0 0 0 0 0 0 0 0 0 0 0 0 0 0 0 0 0 0 0 0 0 0 0 0
0 0 0 0 0 0 0 0 0 0 0 0 0 0 0 0 0 0 0 0 0 0 0 0 0 0 0 0 0 0 0 0 0 0 0 0 0 0 0 0 0 0 0 0
0 0 0 0 0 0 0 0 0 0 0 0 0 0 0 0 0 0 0 0 0 0 0 0 0 0 0 0 0 0 0 0 0 0 0 0 0 0 0 0 0 0 0 0
0 0 0 0 0 0 0 0 0 0 0 0 0 0 0 0 0 0 0 0 0 0 0 0 0 0 0 0 0 0 0 0 0 0 0 0 0 0 0 0 0 0 0 0
0 0 0 0 0 0 0 0 0 0 0 0 0 0 0 0 0 0 0 0 0 0 0 0 0 0 0 0 0 0 0 0 0 0 0 0 0 0 0 0 0 0 0 0
0 0 0 0 0 0 0 0 0 0 0 0 0 0 0 0 0 0 0 0 0 0 0 0 0 0 0 0 0 0 0 0 0 0 0 0 0 0 0 0 0 0 0 0
Wind_Speed
2 2 2 4 6 6 6 6 7 5 4 5 7 8 6 4 3 3 3 2 1 1 1 2 3 3 3 3 2 1 2 2 2 3 3 4 4 3 3 4 4 5 5 5
1 2 2 4 4 5 6 7 6 5 4 4 5 8 5 3 2 1 2 2 1 1 3 4 4 4 4 3 2 1 1 1 1 2 2 2 2 3 3 3 4 5 6 6
2 2 2 2 3 4 5 5 5 5 6 4 4 5 4 3 1 1 2 3 3 2 2 3 4 4 4 4 3 2 1 0 0 1 1 1 1 1 2 2 2 3 5 5
2 2 3 2 3 4 5 3 5 5 3 3 2 3 2 2 1 2 2 3 4 4 3 3 3 3 3 3 3 3 3 3 2 1 0 1 1 2 3 2 2 2 3 4
1 1 1 2 3 4 3 3 4 5 4 3 3 3 3 1 1 1 2 3 3 4 4 4 4 3 3 4 3 3 3 4 4 3 1 0 1 2 1 1 2 2 2 1
1 1 1 2 3 3 2 2 3 2 1 4 4 4 3 1 1 2 3 4 4 5 5 5 5 4 4 4 4 3 2 3 4 4 3 2 1 1 1 2 2 2 2 1
1 0 0 1 2 1 1 1 0 1 2 4 1 3 2 2 4 5 5 5 5 5 5 6 6 6 5 5 4 4 4 4 4 4 3 3 2 2 1 1 2 2 2 2
2 1 0 0 1 2 3 1 1 2 2 1 0 2 1 3 4 5 5 6 6 6 5 6 5 5 5 5 5 4 5 4 4 4 3 3 3 2 2 3 2 2 2 2
2 2 1 1 1 1 1 2 2 1 2 1 2 1 1 2 4 5 6 6 7 7 7 7 7 6 6 6 5 5 4 4 5 4 4 4 4 3 3 3 3 3 3 3
3 3 2 2 1 0 1 0 0 1 1 2 3 3 2 1 1 4 5 5 6 7 7 6 6 6 6 6 6 5 5 5 5 5 4 4 3 3 3 3 4 4 4 4
3 2 2 1 1 1 1 1 0 1 1 1 2 1 1 2 2 2 3 5 5 6 6 6 5 5 5 5 6 6 6 6 6 6 5 4 3 3 3 3 3 3 4 4
2 1 2 2 1 2 1 1 1 1 2 2 2 2 2 3 4 4 4 5 5 5 5 5 5 5 6 6 6 6 6 6 6 6 5 4 4 4 4 4 4 4 4 4
3 1 2 1 1 1 1 1 1 1 1 3 3 4 1 4 4 4 4 4 4 5 5 5 5 5 5 5 5 5 6 6 6 6 6 5 5 5 5 4 5 5 5 5
3 1 1 2 2 2 4 4 3 2 3 4 6 4 2 2 2 3 3 3 3 3 4 4 4 4 4 4 4 5 5 5 5 5 6 5 5 5 5 5 5 4 4 4
3 1 2 4 6 5 5 6 5 6 6 6 6 5 5 3 2 2 1 2 3 3 4 4 3 3 4 4 4 4 4 4 4 5 5 5 5 5 5 5 5 5 4 4
3 2 2 4 4 4 6 7 6 7 8 8 7 8 4 1 1 2 2 2 3 4 4 4 3 4 4 4 4 4 4 4 4 4 4 4 5 5 5 5 5 5 4 4
1 1 2 3 5 4 6 6 6 5 5 5 7 5 1 2 2 2 2 2 3 3 4 4 4 4 4 4 4 4 4 4 3 3 4 4 4 4 5 6 5 5 5 4
2 1 1 3 4 5 5 1 2 4 5 6 5 3 2 1 2 2 2 3 3 4 5 4 3 4 4 4 4 4 4 4 4 3 4 4 4 4 4 5 5 5 5 4
4 3 2 1 3 8 4 2 2 3 5 4 4 2 2 2 3 3 2 3 3 4 4 3 3 3 3 4 4 3 4 4 4 4 4 5 4 5 5 5 5 5 5 5
1 2 2 2 3 7 4 1 1 1 5 2 1 1 1 2 4 3 2 2 4 4 2 2 2 3 3 4 4 3 4 4 5 5 5 5 4 5 5 6 6 5 5 5
2 3 5 5 6 9 3 3 3 3 5 1 1 2 2 3 4 3 3 3 3 3 3 3 3 3 3 4 4 4 4 5 5 5 5 5 5 5 6 6 5 5 5 5
6 5 6 5 6 10 4 5 5 6 1 1 2 2 2 3 3 3 3 4 4 4 3 3 3 4 4 4 4 5 5 5 5 5 6 6 6 6 5 6 6 5 5 5
7 7 5 8 9 4 4 5 4 2 2 3 3 3 3 3 4 4 4 4 4 4 4 3 4 5 4 3 3 5 6 5 5 6 6 7 7 6 6 5 6 5 5 4
6 4 4 7 9 7 7 5 4 4 4 3 3 3 3 4 5 5 5 5 5 5 4 3 4 5 6 4 4 4 5 5 5 6 7 7 6 6 6 5 4 4 4 5
7 5 5 9 9 7 7 7 6 5 4 3 3 3 4 4 6 5 5 6 5 5 4 4 4 5 6 6 5 5 5 5 5 6 7 7 6 6 5 5 5 6 5 6
9 10 9 11 8 7 6 5 4 4 5 5 4 4 4 4 5 5 6 5 5 5 5 5 5 6 6 6 6 5 5 4 5 6 6 5 5 5 5 5 6 8 9 11
Wind_Direction
171 198 216 231 236 274 298 279 273 286 306 279 255 262 267 272 274 271 280 271 264 317 26 54 53 60 63 57 62 98 147 178 191 202 204 204 209 209 215 215 211 211 212 213
202 226 275 282 266 269 281 283 284 298 316 305 283 275 279 278 249 247 278 291 278 356 23 43 50 52 54 53 47 45 78 159 199 227 222 218 210 210 216 227 219 214 213 214
266 340 329 292 267 255 258 262 283 299 316 282 284 278 248 247 228 53 8 3 5 23 35 45 54 52 45 40 31 23 12 55 166 266 228 243 213 223 229 243 242 233 222 217
274 301 319 292 268 268 256 283 292 289 282 265 248 275 275 226 111 63 47 28 7 7 23 30 44 50 48 32 30 28 18 16 22 76 118 201 230 241 247 257 255 256 236 231
294 342 317 280 278 275 290 312 283 278 264 276 253 255 282 242 142 103 62 51 29 23 30 27 27 40 45 34 26 23 23 20 20 28 37 189 255 272 312 332 309 284 272 260
266 319 316 299 300 269 321 344 326 285 242 244 225 216 282 300 81 85 75 59 44 33 31 32 23 29 39 35 24 18 29 27 20 23 22 19 344 338 0 341 327 311 299 303
319 73 124 336 332 314 333 83 85 212 210 240 179 188 242 22 42 53 54 52 50 40 31 27 23 20 25 28 20 15 22 26 20 19 17 20 8 359 340 310 308 324 324 331
336 287 180 241 240 272 248 211 174 226 229 287 313 203 151 58 46 49 50 45 38 35 31 28 22 19 22 22 21 20 21 18 16 16 6 11 16 15 1 349 338 332 328 329
325 302 338 315 295 251 223 227 266 313 320 271 228 196 173 71 62 51 43 41 35 31 32 28 25 22 17 17 14 17 20 18 10 10 13 19 18 19 12 3 358 351 346 345
325 297 297 306 321 294 265 318 94 184 230 250 244 230 214 169 71 56 41 36 31 27 27 27 24 22 21 20 15 17 24 22 12 10 11 14 20 21 15 11 6 357 347 350
341 307 300 288 217 253 189 176 221 205 263 252 264 251 45 146 106 81 50 36 28 28 26 22 19 19 19 21 22 23 21 19 14 11 7 9 10 18 20 14 1 353 349 347
344 317 283 261 270 300 257 206 166 200 254 257 277 280 10 79 75 65 43 33 29 26 25 27 23 22 23 21 21 21 19 20 15 9 11 13 9 13 17 6 358 355 352 346
342 336 312 309 124 44 337 296 261 240 257 244 234 244 70 64 47 43 38 26 24 22 20 26 26 23 20 17 16 16 17 16 11 11 13 16 15 13 10 3 357 356 351 347
351 345 234 274 304 317 289 282 267 223 226 251 244 252 288 2 359 359 14 27 27 18 15 18 18 15 11 10 10 11 11 11 9 10 10 10 9 7 3 357 353 353 351 347
1 298 277 287 296 292 282 274 259 242 238 245 263 265 278 292 299 316 18 37 20 9 8 7 7 4 358 359 1 3 2 3 5 8 7 2 357 357 356 351 348 346 345 340
1 321 314 290 286 287 281 272 254 251 248 252 266 274 275 287 315 345 357 6 0 354 354 359 4 357 349 348 351 353 351 349 353 358 352 348 347 348 347 341 340 339 337 334
324 338 320 286 317 333 282 245 225 229 230 236 250 260 299 313 328 336 336 341 332 338 348 349 347 342 338 337 341 342 339 339 345 343 339 340 337 336 333 330 333 329 325 326
237 271 266 298 339 264 240 161 232 243 253 250 262 272 285 303 327 323 318 328 339 344 337 333 330 330 332 333 333 333 333 334 331 329 330 331 329 326 326 326 323 320 318 317
215 221 250 261 275 273 266 226 221 243 271 255 254 265 309 4 340 304 331 7 342 323 315 315 318 318 322 323 320 327 329 329 327 325 325 323 322 320 320 318 313 311 310 308
203 205 226 234 254 257 255 140 60 18 276 260 237 272 294 331 300 287 344 337 320 316 314 314 317 320 322 321 323 322 317 317 313 313 313 315 315 312 309 307 306 306 304 301
184 206 217 229 246 262 241 143 118 189 250 236 282 278 262 262 262 282 314 309 305 307 308 311 314 315 314 319 322 312 311 307 308 313 314 314 313 308 303 302 302 301 300 300
193 196 206 202 224 251 186 148 194 229 266 285 291 283 270 267 278 285 287 289 295 300 307 315 313 308 313 320 314 304 304 311 318 317 313 310 308 304 304 299 299 299 297 295
213 208 202 206 223 243 196 213 224 234 256 261 261 267 261 272 277 284 287 290 297 300 302 304 300 302 310 315 307 297 305 319 319 312 305 303 302 299 298 293 294 295 291 288
234 220 238 258 258 255 252 250 246 240 242 251 254 261 260 267 278 287 290 294 298 298 297 300 300 297 300 307 309 299 306 313 307 301 299 298 297 295 293 290 286 283 282 283
226 193 226 254 267 277 257 239 239 242 245 255 258 252 251 260 274 278 283 286 287 292 298 300 292 289 293 304 305 306 311 311 302 298 297 297 293 292 294 289 283 283 273 269
204 202 209 235 227 219 242 230 224 233 242 238 241 259 263 255 267 277 278 281 285 287 292 292 289 287 291 298 298 302 306 302 295 295 295 295 294 292 291 292 295 288 286 287